Location: Waco, TX
(31.5480°N, 97.1670°W)
Time: 03:05:03
(UTC-05:00)

ISS - Pass Details

Date: 21 September 2017
Orbit: 401 x 407 km, 51.6° (Epoch: 22 September)

Event Time Altitude Azimuth Distance (km) Brightness Sun altitude
Rises 20:39:17 0° 191° (S) 2,299 0.0 -16.3°
Enters shadow 20:41:21 - 176° (S) 1,581 -1.0 -16.8°
Reaches altitude 10° 20:41:49 10° 170° (S) 1,446 - -16.9°
Maximum altitude 20:44:01 17° 127° (SE) 1,097 - -17.3°
Drops below altitude 10° 20:46:15 10° 84° (E) 1,454 - -17.8°
Sets 20:48:48 0° 63° (ENE) 2,319 - -18.3°
